{"data":{"norad_id":52296,"intl_designator":"2022-041AM","name":"STARLINK-3766","alt_names":[],"object_type":"PAYLOAD","status":"ACTIVE","operator":null,"country":"US","launch_date":"2022-04-21","launch_site_code":"AFETR","launch_vehicle":null,"mission":null,"orbit_class":"UNKNOWN","rcs_meters":null,"size_class":null,"mass_kg":null,"dimensions":null,"purposes":["comms"],"wikipedia_slug":null,"has_3d_model":false,"image_url":null,"decayed_at":null,"tle_current":{"epoch":"2026-09-19T15:23:01.669056Z","epoch_age_seconds":133787,"freshness":"FRESH","line1":"1 52296U 22041AM  26262.64099154 -.00000767  00000+0 -11569-4 0  9996","line2":"2 52296  53.1585 295.3870 0001266  50.5855 309.5259 15.34396249243963","mean_motion":15.34396249,"eccentricity":0.0001266,"inclination_deg":53.1585,"raan_deg":295.387,"arg_perigee_deg":50.5855,"mean_anomaly_deg":309.5259,"bstar":-1.1569e-5,"rev_number":24396,"period_min":93.847987502477,"perigee_km":461.84833720646,"apogee_km":463.58044077815,"semimajor_km":6840.8513889923,"source":"CELESTRAK","updated_at":"2026-09-20T09:00:40.017451Z"}}}